#timestamp,LO_Frequency,Hit 
1501484415.8,286047001.1,N
1501484435.7,286047001.2,N
1501484455.5,286046998.4,N
1501484475.3,286046997.0,N
1501484495.1,286046999.3,N
1501484515.9,286046998.5,N
1501484535.7,286046998.5,N
1501484555.5,286047000.5,N
1501484575.4,286047000.4,N
1501484595.2,286047001.5,N
1501484615.0,286047002.7,N
1501484615.9,286047002.7,N
1501484635.8,286047000.6,N
1501484655.6,286047000.8,N
1501484675.4,286047000.3,N
1501484695.3,286047002.4,N
1501484715.1,286047003.9,N
1501484716.0,286047003.9,N
1501484735.8,286047001.4,N
1501484755.7,286047001.6,N
1501484775.5,286047001.3,N
1501484795.3,286047004.1,N
1501484815.1,286047003.1,N
1501484835.9,286047003.1,N
1501484855.7,286047003.4,N
1501484875.5,286047001.9,N
1501484895.4,286047001.0,N
1501484915.2,286046998.6,N
1501484935.0,286046997.8,N
1501484935.9,286046997.8,N
1501484955.8,286046997.0,N
1501484975.6,286046998.8,N
1501484995.4,286046998.4,N
1501485015.3,286046997.3,N
1501485035.1,286046995.5,N
1501485036.0,286046995.5,N
1501485055.8,286046997.9,N
1501485075.6,286046995.5,N
1501485095.5,286046996.0,N
1501485115.5,286046998.0,N
1501485135.3,286046995.8,N
1501485155.1,286046991.8,N
1501485175.9,286046993.7,N
1501485195.7,286046996.2,N
1501485215.5,286046996.3,N
1501485235.2,286046993.4,N
1501485255.1,286046994.6,N
1501485256.0,286046994.6,N
1501485275.8,286046993.4,N
1501485295.6,286046995.8,N
1501485315.5,286046994.2,N
1501485335.3,286046993.9,N
1501485355.1,286046990.7,N
1501485375.9,286046991.2,N
1501485395.7,286046987.4,N
1501485415.5,286046988.7,N
1501485435.4,286046991.2,N
1501485455.2,286046991.3,N
1501485475.0,286046990.8,N
1501485475.9,286046990.8,N
1501485495.7,286046993.2,N
1501485515.6,286046993.0,N
1501485535.4,286046992.7,N
1501485555.2,286046991.8,N
1501485575.1,286046992.8,N
1501485576.0,286046992.8,N
1501485595.8,286046992.0,N
1501485615.6,286046994.4,N
1501485635.5,286046993.7,N
1501485655.3,286046996.2,N
1501485675.1,286046995.3,N
1501485695.9,286046995.7,N
1501485715.7,286046995.9,N
1501485735.5,286046991.7,N
1501485755.3,286046994.8,N
1501485775.2,286046994.0,N
1501485795.0,286046992.3,N
1501485795.9,286046992.3,N
1501485815.7,286046990.1,N
1501485835.6,286046993.2,N
1501485855.4,286046991.1,N
1501485875.2,286046990.4,N
1501485895.1,286046991.4,N
1501485896.0,286046991.4,N
1501485915.8,286046986.9,N
1501485935.6,286046989.8,N
1501485955.5,286046988.7,N
1501485975.3,286046989.6,N
1501485995.1,286046987.5,N
1501486015.9,286046985.6,N
1501486035.7,286046984.9,N
1501486055.5,286046983.7,N
1501486075.3,286046985.4,N
1501486095.2,286046986.4,N
1501486115.0,286046986.3,N
1501486115.9,286046986.3,N
1501486135.7,286046986.5,N
1501486155.6,286046985.8,N
1501486175.4,286046984.0,N
1501486195.2,286046983.2,N
1501486215.1,286046980.6,N
1501486216.0,286046980.6,N
1501486235.8,286046981.7,N
1501486255.6,286046977.6,Y
1501486275.5,286046973.9,Y
1501486295.3,286046968.9,Y
1501486315.2,286046964.7,Y
1501486335.9,286046958.1,Y
1501486355.7,286046953.3,Y
1501486375.6,286046951.3,Y
1501486395.4,286046948.0,Y
1501486415.2,286046942.9,Y
1501486435.1,286046939.5,Y
1501486436.0,286046939.5,Y
1501486455.8,286046930.6,Y
1501486475.7,286046923.1,Y
1501486495.5,286046920.2,Y
1501486515.4,286046916.6,Y
1501486535.2,286046913.7,Y
1501486555.0,286046908.8,Y
1501486556.0,286046908.8,Y
1501486575.8,286046902.7,Y
1501486595.6,286046900.1,Y
1501486615.5,286046895.8,Y
1501486635.3,286046892.6,Y
1501486655.2,286046888.7,Y
1501486675.9,286046887.1,Y
1501486695.7,286046885.2,Y
1501486715.6,286046884.3,Y
1501486735.4,286046880.1,Y
1501486755.3,286046877.1,Y
1501486775.1,286046873.8,Y
1501486776.0,286046873.8,Y
1501486795.8,286046873.1,Y
1501486815.7,286046872.7,Y
1501486835.5,286046872.8,Y
1501486855.4,286046870.8,Y
1501486875.2,286046865.3,Y
1501486895.0,286046862.7,Y
1501486896.0,286046862.7,Y
1501486915.8,286046860.7,Y
1501486935.6,286046863.2,Y
1501486955.5,286046862.9,Y
1501486975.3,286046863.1,Y
1501486995.2,286046862.8,Y
1501487015.9,286046864.0,Y
1501487035.7,286046864.3,Y
1501487055.6,286046863.9,Y
1501487075.4,286046865.6,Y
1501487095.3,286046870.4,Y
1501487115.1,286046873.5,Y
1501487116.0,286046873.5,Y
1501487135.8,286046880.7,Y
1501487155.7,286046884.2,Y
1501487175.5,286046883.1,Y
1501487195.4,286046884.9,Y
1501487215.2,286046887.2,Y
1501487235.0,286046887.9,Y
1501487236.0,286046887.9,Y
1501487255.8,286046894.8,Y
1501487275.6,286046898.0,Y
1501487295.5,286046903.1,Y
1501487315.3,286046908.3,N
1501487335.1,286046906.6,N
1501487355.9,286046905.1,Y
1501487375.7,286046906.3,N
1501487395.5,286046906.7,N
1501487415.4,286046905.0,N
1501487435.2,286046902.6,Y
1501487455.0,286046909.8,N
1501487455.9,286046909.8,N
1501487475.8,286046909.7,N
1501487495.6,286046911.3,N
1501487515.4,286046911.2,N
1501487535.3,286046911.6,N
1501487555.1,286046911.2,N
1501487556.0,286046911.2,N
1501487575.8,286046909.0,N
1501487595.7,286046908.1,N
1501487615.5,286046908.0,N
1501487635.3,286046907.6,N
1501487655.1,286046907.1,N
1501487675.9,286046907.8,N
1501487695.7,286046907.2,N
1501487715.5,286046909.5,N
1501487735.4,286046909.5,N
1501487755.2,286046909.5,N
1501487775.0,286046908.2,N
1501487775.9,286046908.2,N
1501487795.8,286046905.7,N
1501487815.6,286046907.3,N
1501487835.4,286046909.4,N
1501487855.3,286046908.0,N
1501487875.1,286046905.6,N
1501487876.0,286046905.6,N
1501487895.8,286046904.6,N
1501487915.7,286046906.5,N
1501487935.5,286046908.2,N
1501487955.3,286046907.1,N
1501487975.1,286046911.6,N
1501487995.9,286046911.0,N
